User: anonymous   Login
Location: Pleiades Observatory
(40.1297°N, 91.5238°W)
Time: 03:50:10
(UTC-05:00)
Language:

Cosmos 1842 Rocket - Orbit

View from above orbital plane
View from above orbital plane
View from above satellite
View from above satellite

Ground track
Ground track

The orbit data is extracted from the following two-line orbital elements,

1 17912U 87038B   16268.03674056  .00000115  00000-0  11175-4 0  9996
2 17912  82.5005 300.0773 0021037  31.0695 329.1759 14.82888639588283
Epoch (UTC): 24 September 2016 00:52:54
Eccentricity: 0.0021037
inclination: 82.5005°
perigee height: 605 km
apogee height: 635 km
right ascension of ascending node: 300.0773°
argument of perigee: 31.0695°
revolutions per day: 14.82888639
mean anomaly at epoch: 329.1759°
orbit number at epoch: 58828

The dashed part of the orbit path shows where the satellite is in the earth's shadow,  

DLR